Weather History for Bangkok (Don Mueang), Thailand

Change the Weather History Date:

Wednesday, April 10, 2013

  Actual Average Record
Temperature  
Mean Temperature 90 °F -  
Max Temperature 99 °F 93 °F 100 °F (2002)
Min Temperature 80 °F 78 °F 73 °F (2011)
Cooling Degree Days 24    
Growing Degree Days 40 (Base 50)    
Moisture  
Dew Point 74 °F    
Average Humidity 62    
Maximum Humidity 84    
Minimum Humidity 36    
Precipitation  
Precipitation 0.00 in 0.13 in - ()
Sea Level Pressure  
Sea Level Pressure 29.76 in    
Wind  
Wind Speed 6 mph ()    
Max Wind Speed 12 mph    
Max Gust Speed -    
Visibility 5.8 miles    
Events      
Averages and records for this station are not official NWS values.
T = Trace of Precipitation, MM = Missing Value Source: Averaged Metar Reports

Daily Weather History Graph

Daily Weather History Graph

Search for Another Location

Airport:

Trip Planner

Search our weather history database for the weather conditions in past years. The results will help you decide how hot, cold, wet, or windy it might be!

Date:

Astronomy

Apr. 10, 2013 Rise Set
Actual Time 6:07 AM ICT 6:30 PM ICT
Civil Twilight 5:46 AM ICT 6:51 PM ICT
Nautical Twilight 5:20 AM ICT 7:17 PM ICT
Astronomical Twilight 4:55 AM ICT 7:42 PM ICT
Moon 5:46 AM ICT (4/10) 6:28 PM ICT (4/10)
Length of Visible Light 13h 05m
Length of Day
12h 22m
Waning Crescent, 0% of the Moon is Illuminated
Apr 10
Waning Crescent
Apr 10
New
Apr 18
First Quarter
Apr 26
Full
May 2
Last Quarter

Hourly Weather History & Observations

Time (ICT) Temp. Heat Index Dew Point Humidity Pressure Visibility Wind Dir Wind Speed Gust Speed Precip Events Conditions
12:00 AM 86.0 °F 95.1 °F 75.2 °F 70% 29.77 in 6.2 mi SSW 10.4 mph - N/A   Scattered Clouds
12:30 AM 86.0 °F 95.1 °F 75.2 °F 70% 29.77 in 6.2 mi SSW 5.8 mph - N/A   Scattered Clouds
1:00 AM 85 °F - 76 °F 69% 29.81 in 6 mi SSW 8.1 mph - -   Scattered Clouds
1:00 AM 86.0 °F 96.9 °F 77.0 °F 74% 29.77 in 6.2 mi SSW 8.1 mph - N/A   Scattered Clouds
1:30 AM 86.0 °F 96.9 °F 77.0 °F 74% 29.77 in 6.2 mi South 5.8 mph - N/A   Scattered Clouds
2:00 AM 86.0 °F 96.9 °F 77.0 °F 74% 29.77 in 6.2 mi SSE 4.6 mph - N/A   Scattered Clouds
2:30 AM 86.0 °F 96.9 °F 77.0 °F 74% 29.74 in 6.2 mi SSE 3.5 mph - N/A   Scattered Clouds
3:00 AM 84.2 °F 94.1 °F 77.0 °F 79% 29.74 in 6.2 mi ESE 3.5 mph - N/A   Scattered Clouds
3:30 AM 84.2 °F 94.1 °F 77.0 °F 79% 29.74 in 6.2 mi ESE 4.6 mph - N/A   Scattered Clouds
4:00 AM 84.2 °F 94.1 °F 77.0 °F 79% 29.74 in 6.2 mi ESE 4.6 mph - N/A   Scattered Clouds
4:30 AM 82.4 °F 89.5 °F 75.2 °F 79% 29.74 in 5.6 mi ESE 5.8 mph - N/A   Mostly Cloudy
5:00 AM 82.4 °F 89.5 °F 75.2 °F 79% 29.77 in 5.0 mi Calm Calm - N/A   Mostly Cloudy
5:30 AM 80.6 °F 86.2 °F 75.2 °F 84% 29.77 in 5.0 mi ESE 4.6 mph - N/A   Mostly Cloudy
6:00 AM 80.6 °F 86.2 °F 75.2 °F 84% 29.77 in 4.3 mi SE 5.8 mph - N/A   Mostly Cloudy
6:30 AM 80.6 °F 86.2 °F 75.2 °F 84% 29.80 in 3.7 mi ESE 4.6 mph - N/A   Mostly Cloudy
7:00 AM 80 °F - 75 °F 81% 29.81 in 4 mi SE 4.6 mph - -   Mist
7:00 AM 80.6 °F 86.2 °F 75.2 °F 84% 29.80 in 3.7 mi SE 4.6 mph - N/A   Mostly Cloudy
7:30 AM 80.6 °F 86.2 °F 75.2 °F 84% 29.80 in 3.7 mi SE 8.1 mph - N/A   Mostly Cloudy
8:00 AM 84.2 °F 94.1 °F 77.0 °F 79% 29.83 in 3.7 mi SSE 6.9 mph - N/A   Mostly Cloudy
8:30 AM 86.0 °F 96.9 °F 77.0 °F 74% 29.83 in 5.0 mi SSE 6.9 mph - N/A   Mostly Cloudy
9:00 AM 87.8 °F 99.7 °F 77.0 °F 70% 29.83 in 5.6 mi South 4.6 mph - N/A   Mostly Cloudy
9:30 AM 89.6 °F 102.2 °F 77.0 °F 66% 29.83 in 5.6 mi SSW 6.9 mph - N/A   Mostly Cloudy
10:00 AM 89.6 °F 102.2 °F 77.0 °F 66% 29.83 in 5.6 mi SSW 6.9 mph - N/A   Mostly Cloudy
10:30 AM 91.4 °F 105.1 °F 77.0 °F 63% 29.83 in 6.2 mi South 5.8 mph - N/A   Mostly Cloudy
11:00 AM 91.4 °F 105.1 °F 77.0 °F 63% 29.83 in 6.2 mi SSW 9.2 mph - N/A   Mostly Cloudy
11:30 AM 93.2 °F 107.2 °F 77.0 °F 59% 29.80 in 6.2 mi South 5.8 mph - N/A   Mostly Cloudy
12:00 PM 95.0 °F 107.4 °F 75.2 °F 53% 29.80 in 6.2 mi WSW 5.8 mph - N/A   Mostly Cloudy
12:30 PM 95.0 °F 107.4 °F 75.2 °F 53% 29.77 in 6.2 mi South 5.8 mph - N/A   Mostly Cloudy
1:00 PM 98 °F - 75 °F 38% 29.78 in 6 mi SW 6.9 mph - -   Partly Cloudy
1:00 PM 96.8 °F 109.6 °F 75.2 °F 50% 29.77 in 6.2 mi SW 5.8 mph - N/A   Mostly Cloudy
1:30 PM 96.8 °F 109.6 °F 75.2 °F 50% 29.74 in 6.2 mi SW 6.9 mph - N/A   Mostly Cloudy
2:00 PM 98.6 °F 107.7 °F 71.6 °F 42% 29.71 in 6.2 mi South 9.2 mph - N/A   Mostly Cloudy
2:30 PM 98.6 °F 107.7 °F 71.6 °F 42% 29.68 in 6.2 mi South 9.2 mph - N/A   Mostly Cloudy
3:00 PM 98.6 °F 109.2 °F 73.4 °F 44% 29.68 in 6.2 mi SSW 6.9 mph - N/A   Mostly Cloudy
3:30 PM 98.6 °F 109.2 °F 73.4 °F 44% 29.68 in 6.2 mi WSW 10.4 mph - N/A   Mostly Cloudy
4:00 PM 96.8 °F 103.1 °F 69.8 °F 41% 29.68 in 6.2 mi WSW 10.4 mph - N/A   Mostly Cloudy
4:30 PM 95.0 °F 101.3 °F 69.8 °F 44% 29.68 in 6.2 mi WSW 10.4 mph - N/A   Mostly Cloudy
5:00 PM 95.0 °F 101.3 °F 69.8 °F 44% 29.68 in 6.2 mi WSW 10.4 mph - N/A   Mostly Cloudy
5:30 PM 93.2 °F 100.5 °F 71.6 °F 49% 29.68 in 6.2 mi WSW 11.5 mph - N/A   Mostly Cloudy
6:00 PM 93.2 °F 96.2 °F 66.2 °F 41% 29.68 in 6.2 mi WSW 9.2 mph - N/A   Mostly Cloudy
6:30 PM 93.2 °F 96.2 °F 66.2 °F 41% 29.71 in 6.2 mi WSW 6.9 mph - N/A   Mostly Cloudy
7:00 PM 92 °F - 68 °F 36% 29.77 in 6 mi SW 9.2 mph - -   Scattered Clouds
7:00 PM 91.4 °F 95.4 °F 68.0 °F 46% 29.71 in 6.2 mi SW 9.2 mph - N/A   Mostly Cloudy
7:30 PM 91.4 °F 95.4 °F 68.0 °F 46% 29.71 in 6.2 mi SW 9.2 mph - N/A   Mostly Cloudy
8:00 PM 91.4 °F 95.4 °F 68.0 °F 46% 29.74 in 6.2 mi South 9.2 mph - N/A   Mostly Cloudy
8:30 PM 91.4 °F 96.8 °F 69.8 °F 49% 29.77 in 6.2 mi South 5.8 mph - N/A   Mostly Cloudy
9:00 PM 89.6 °F 96.2 °F 71.6 °F 55% 29.77 in 6.2 mi West 6.9 mph - N/A   Mostly Cloudy
9:30 PM 89.6 °F 96.2 °F 71.6 °F 55% 29.77 in 6.2 mi West 6.9 mph - N/A   Mostly Cloudy
10:00 PM 87.8 °F 97.6 °F 75.2 °F 66% 29.77 in 6.2 mi South 9.2 mph - N/A   Mostly Cloudy
10:30 PM 87.8 °F 97.6 °F 75.2 °F 66% 29.80 in 6.2 mi South 9.2 mph - N/A   Mostly Cloudy
11:00 PM 87.8 °F 97.6 °F 75.2 °F 66% 29.80 in 6.2 mi South 9.2 mph - N/A   Mostly Cloudy
11:30 PM 86.0 °F 96.9 °F 77.0 °F 74% 29.80 in 6.2 mi South 6.9 mph - N/A   Mostly Cloudy